カタログに戻る

STARLINK-34171

運用中通信VLEO
NORAD 64082·PAYLOAD·🇺🇸 United States

打ち上げ May 21, 2025 から Cape Canaveral Space Force Station

Loading…

次のパス (今後24時間)

TLE

最新Source: CelesTrak SupGP

元期: Sep 14, 2026, 20:58 UTC

1 64082C 25107U   26257.87409722  .00024461  00000+0  88604-3 0  2578
2 64082  43.0004 212.7815 0001096 257.7335 249.5101 15.27564473    14

AllMySatでSTARLINK-34171をリアルタイム追跡

Download on the App Store